Regional Weather Roundup
Issued by NWS Sioux Falls, SD

Home | Current Version | Previous Version | Graphics & Text | Print | Product List | Glossary On
Versions: 1 2 3 4 5 6 7 8 9 10 11 12 13 14 15 16 17 18 19 20 21 22 23 24 25 26 27 28 29 30 31 32 33 34 35 36 37 38 39 40 41 42 43 44 45 46 47 48 49 50
000
ASUS43 KFSD 280702
RWRFSD

WEATHER ROUNDUP FOR SE SOUTH DAKOTA/SW MINNESOTA/NW IOWA
NATIONAL WEATHER SERVICE SIOUX FALLS SD
200 AM CDT FRI APR 28 2017

NOTE: "FAIR" INDICATES FEW OR NO CLOUDS BELOW 12,000 FEET WITH NO
SIGNIFICANT WEATHER AND OR OBSTRUCTIONS TO VISIBILITY.


SDZ038>040-050-052>070-280800-
SOUTHEAST SOUTH DAKOTA

CITY           SKY/WX    TMP DP  RH WIND       PRES   REMARKS
CHAMBERLAIN    CLOUDY    35  31  84 NE6       29.81S
HURON          CLEAR     32  27  81 S7        29.84S WCI  26
MADISON        FAIR      30  30 100 S6        29.84S WCI  24
MITCHELL       CLEAR     33  28  81 SE7       29.85R WCI  27
SIOUX FALLS    CLEAR     31  27  85 E5        29.85S WCI  26
WINNER         FAIR      37  30  75 E9        29.79R
YANKTON        CLEAR     36  28  75 NE14      29.84R
$$

MNZ071-072-080-081-089-090-097-098-280800-
SOUTHWEST MINNESOTA

CITY           SKY/WX    TMP DP  RH WIND       PRES   REMARKS
FAIRMONT       CLEAR     30  26  85 SW7       29.87R WCI  23
JACKSON        CLEAR     28  27  93 S5        29.86S WCI  23
LUVERNE        CLEAR     27  23  86 CALM      29.86S
MARSHALL       CLEAR     31  28  89 SW9       29.85R WCI  23
MONTEVIDEO     CLOUDY    36  30  80 W6        29.83R
PIPESTONE      CLEAR     30  25  80 CALM      29.83S
REDWOOD FALLS  CLOUDY    36  28  73 SW12      29.83R
TRACY          CLEAR     32  29  90 SW8       29.85R WCI  25
WINDOM         CLEAR     27  27 100 CALM      29.85R
WORTHINGTON    CLEAR     27  26  96 S6        29.85S WCI  20
$$

IAZ001>003-012>014-020>022-031-032-NEZ013-014-SDZ071-280800-
NORTHWEST IOWA

CITY           SKY/WX    TMP DP  RH WIND       PRES   REMARKS
CHEROKEE       CLEAR     32  30  91 NE9       29.84F WCI  24
DENISON        CLOUDY    37  32  81 E6        29.84F
ESTHERVILLE    CLEAR     27  26  96 S7        29.86R WCI  19
LE MARS        CLEAR     34  30  86 NE9G18    29.85F WCI  26
ORANGE CITY    CLEAR     32  28  86 NE7       29.85F WCI  26
SHELDON        CLEAR     30  28  93 E6        29.84F WCI  24
SIOUX CITY     CLEAR     38  33  82 E10       29.84R
SPENCER        CLEAR     29  27  92 E5        29.86S WCI  24
STORM LAKE     CLEAR     34  28  80 NE16      29.84F WCI  23
$$

ABBREVIATIONS USED IN REMARKS
   TC - TEMPERATURE IN CELSIUS
  WCI - WIND CHILL INDEX
   HX - HEAT INDEX
  VSB - VISIBILITY




USA.gov is the U.S. government's official web portal to all federal, state and local government web resources and services.